Simultaneous Nadir Overpasses (SNOs) Predictions

Prediction of SNOs between GOES-15 and METOP-C Satellite Orbit:

Table of predicted SNOs for the next 14.0 days since TLE Epoch: 10/24/2022
Index Date Time (GOES-15) GOES-15 Lat,Lon METOP-C Lat,Lon Distance(km) Time Diff (sec)
1 10/24/2022 05:59:45 0.27,-128.42 0.40,-127.80 70.77 80
2 10/25/2022 18:18:37 -0.28,-128.43 0.62,-132.36 447.66 80
3 10/26/2022 18:00:39 -0.27,-128.44 -0.50,-127.36 121.82 80
4 10/28/2022 06:19:41 0.27,-128.43 -0.50,-131.97 402.83 80
5 10/29/2022 05:56:22 0.27,-128.42 0.57,-126.97 165.42 80
6 10/30/2022 18:15:14 -0.26,-128.41 0.46,-131.52 355.38 80
7 10/31/2022 17:57:16 -0.26,-128.41 -0.67,-126.53 213.16 80
8 11/02/2022 06:16:17 0.26,-128.40 -0.36,-131.13 311.59 80
9 11/03/2022 05:52:58 0.25,-128.38 0.78,-126.14 256.23 80
10 11/04/2022 18:11:51 -0.25,-128.37 0.27,-130.70 265.57 80
11 11/05/2022 17:53:52 -0.25,-128.36 -0.87,-125.71 302.86 80
